EA5EN Weather Reports


time (UTC)temp
C
wind
direction
speed
KPH
gust
KPH
rain 1hr
cm
rain 24hr
cm
rain mn
cm
humidity
%
barometer
mb
20260507023110 16 23 1.6 3.2 0.00 0.00 0.00 85 1011.1
20260507022041 16 23 0.0 3.2 0.00 0.00 0.00 85 1011.0
20260507021031 16 23 1.6 3.2 0.00 0.00 0.00 86 1011.2
20260507020026 16 23 1.6 6.4 0.00 0.00 0.00 86 1011.2
20260507015016 16 23 1.6 3.2 0.00 0.00 0.00 85 1011.3
20260507014107 16 23 1.6 6.4 0.00 0.00 0.00 85 1011.4
20260507013056 16 45 1.6 6.4 0.00 0.00 0.00 85 1011.5
20260507012131 16 26 3.2 6.4 0.00 0.00 0.00 84 1011.4
20260507011101 16 23 3.2 9.7 0.00 0.00 0.00 84 1011.4
20260507010031 16 23 3.2 6.4 0.00 0.00 0.00 84 1011.4
20260507005026 16 29 1.6 6.4 0.00 0.00 0.00 84 1011.4
20260507004017 16 15 1.6 6.4 0.00 0.00 0.00 84 1011.5
20260507003106 16 27 1.6 6.4 0.00 0.00 0.00 84 1011.5
20260507002115 16 34 3.2 6.4 0.00 0.00 0.00 83 1011.7
20260507001050 17 31 3.2 6.4 0.00 0.00 0.00 82 1011.7
20260507000040 17 18 3.2 6.4 0.00 0.00 0.00 83 1011.9
20260506235031 17 354 3.2 6.4 0.00 0.00 0.00 83 1011.8
20260506234046 17 23 3.2 6.4 0.00 0.00 0.00 83 1012.0
20260506233017 17 34 1.6 6.4 0.00 0.00 0.00 83 1012.0
20260506232107 17 15 3.2 6.4 0.00 0.00 0.00 83 1012.1
20260506231056 17 3 4.8 9.7 0.00 0.00 0.00 83 1012.1
20260506230051 17 23 1.6 6.4 0.00 0.00 0.00 83 1012.1
20260506225040 17 17 3.2 6.4 0.00 0.00 0.00 83 1012.0
20260506224029 17 19 1.6 6.4 0.00 0.00 0.00 84 1012.0
20260506223019 17 32 3.2 6.4 0.00 0.00 0.00 85 1012.0
20260506222114 17 45 1.6 6.4 0.00 0.00 0.00 85 1012.2
20260506221103 17 45 3.2 6.4 0.00 0.00 0.00 85 1012.1
20260506220053 17 28 1.6 6.4 0.00 0.00 0.00 85 1012.1
20260506215041 17 72 6.4 11.3 0.00 0.00 0.00 84 1012.2
20260506214032 17 66 4.8 11.3 0.00 0.00 0.00 84 1012.4
20260506213027 17 52 6.4 11.3 0.00 0.00 0.00 84 1012.4
20260506212016 17 57 6.4 12.9 0.00 0.00 0.00 84 1012.3
20260506211126 17 62 6.4 14.5 0.00 0.00 0.00 83 1012.3
20260506210056 17 75 8.0 11.3 0.00 0.00 0.00 83 1012.3
20260506205111 17 65 4.8 11.3 0.00 0.00 0.00 82 1012.2
20260506204041 17 72 4.8 9.7 0.00 0.00 0.00 82 1012.3
20260506203031 17 45 4.8 9.7 0.00 0.00 0.00 81 1012.1
20260506202046 17 58 4.8 9.7 0.00 0.00 0.00 80 1012.0
20260506201017 17 70 4.8 9.7 0.00 0.00 0.00 80 1011.9
20260506200106 -17 0.0 0.0 0.00 0.00 0.00 1011.5
20260506175056 -17 0.0 0.0 0.00 0.00 0.00 1010.7
20260506174047 -17 0.0 0.0 0.00 0.00 0.00 1010.6
20260506173056 -17 0.0 0.0 0.00 0.00 0.00 1010.5
20260506172031 -17 0.0 0.0 0.00 0.00 0.00 1010.5
20260506171020 -17 0.0 0.0 0.00 0.00 0.00 1010.4
20260506164554 20 71 14.5 25.7 0.00 0.00 0.00 66 1010.4
20260506155028 20 103 16.1 27.4 0.00 0.00 0.00 67 1010.1
20260506154039 20 84 14.5 27.4 0.00 0.00 0.00 67 1010.2
20260506153108 21 75 16.1 27.4 0.00 0.00 0.00 64 1010.0
20260506152056 21 56 17.7 29.0 0.00 0.00 0.00 64 1010.0
20260506151045 21 95 17.7 29.0 0.00 0.00 0.00 65 1010.1
20260506150040 21 38 17.7 32.2 0.00 0.00 0.00 65 1010.1
20260506145031 21 81 14.5 35.4 0.00 0.00 0.00 64 1010.1
20260506144041 21 78 16.1 29.0 0.00 0.00 0.00 64 1010.0
20260506143016 21 69 19.3 40.2 0.00 0.00 0.00 62 1010.0
20260506142107 22 71 17.7 32.2 0.00 0.00 0.00 61 1010.1
20260506141058 22 78 16.1 29.0 0.00 0.00 0.00 59 1010.2
20260506140052 21 91 20.9 35.4 0.00 0.00 0.00 63 1010.2
20260506135042 22 93 14.5 27.4 0.00 0.00 0.00 60 1010.3
20260506134031 22 68 17.7 25.7 0.00 0.00 0.00 59 1010.1
20260506133021 23 63 14.5 24.1 0.00 0.00 0.00 58 1010.3
20260506132036 22 82 16.1 25.7 0.00 0.00 0.00 58 1010.4
20260506131105 23 86 17.7 29.0 0.00 0.00 0.00 56 1010.4
20260506130055 23 82 16.1 25.7 0.00 0.00 0.00 56 1010.5
20260506125045 23 83 16.1 27.4 0.00 0.00 0.00 57 1010.6
20260506124040 23 87 12.9 25.7 0.00 0.00 0.00 56 1010.6
20260506123031 22 61 17.7 33.8 0.00 0.00 0.00 58 1010.8
20260506122021 23 82 17.7 27.4 0.00 0.00 0.00 56 1010.7
20260506121036 23 79 11.3 22.5 0.00 0.00 0.00 53 1010.8
20260506120107 23 89 11.3 24.1 0.00 0.00 0.00 52 1010.9
20260506115057 23 87 9.7 22.5 0.00 0.00 0.00 52 1010.9
20260506114053 23 63 8.0 17.7 0.00 0.00 0.00 52 1011.2
20260506113103 22 64 12.9 22.5 0.00 0.00 0.00 51 1011.1
20260506112033 22 45 8.0 20.9 0.00 0.00 0.00 52 1011.3
20260506111028 22 63 12.9 25.7 0.00 0.00 0.00 51 1011.3
20260506110018 22 48 9.7 20.9 0.00 0.00 0.00 52 1011.3
20260506105108 22 58 9.7 24.1 0.00 0.00 0.00 52 1011.4
20260506104057 22 96 9.7 20.9 0.00 0.00 0.00 53 1011.5
20260506103052 22 81 8.0 17.7 0.00 0.00 0.00 55 1011.6
20260506102103 22 63 6.4 14.5 0.00 0.00 0.00 56 1011.6
20260506101033 22 90 6.4 17.7 0.00 0.00 0.00 56 1011.7
20260506100028 21 22 6.4 12.9 0.00 0.00 0.00 60 1011.7
20260506095019 21 27 3.2 9.7 0.00 0.00 0.00 58 1011.9
20260506094108 21 28 6.4 17.7 0.00 0.00 0.00 59 1011.9
20260506093057 21 86 6.4 12.9 0.00 0.00 0.00 58 1011.8
20260506092112 21 132 6.4 14.5 0.00 0.00 0.00 60 1011.7
20260506091043 21 97 6.4 12.9 0.00 0.00 0.00 62 1011.6
20260506090033 20 116 1.6 6.4 0.00 0.00 0.00 63 1011.5
20260506085109 20 94 4.8 9.7 0.00 0.00 0.00 64 1011.6
20260506084018 21 338 1.6 6.4 0.00 0.00 0.00 63 1011.5
20260506083127 20 98 1.6 6.4 0.00 0.00 0.00 66 1011.7
20260506082058 20 61 1.6 6.4 0.00 0.00 0.00 60 1011.7
20260506081052 20 52 1.6 3.2 0.00 0.00 0.00 57 1011.6
20260506073018 19 293 1.6 3.2 0.00 0.00 0.00 54 1011.6
20260506072109 20 315 0.0 3.2 0.00 0.00 0.00 53 1011.5
20260506071104 18 338 0.0 3.2 0.00 0.00 0.00 56 1011.7
20260506062021 16 45 3.2 6.4 0.00 0.00 0.00 56 1011.5
20260506061016 16 44 3.2 6.4 0.00 0.00 0.00 58 1011.5
20260506060107 16 26 3.2 6.4 0.00 0.00 0.00 57 1011.4
20260506051021 15 315 0.0 3.2 0.00 0.00 0.00 58 1010.7
20260506045105 14 315 1.6 6.4 0.00 0.00 0.00 62 1010.5
20260506044054 14 0.0 0.0 0.00 0.00 0.00 62 1010.4
20260506043045 15 0.0 0.0 0.00 0.00 0.00 62 1010.4
20260506042040 15 307 1.6 3.2 0.00 0.00 0.00 62 1010.4
20260506041031 15 308 1.6 6.4 0.00 0.00 0.00 62 1010.4
20260506040021 15 293 3.2 6.4 0.00 0.00 0.00 63 1010.5
20260506035016 15 311 1.6 6.4 0.00 0.00 0.00 62 1010.5
20260506034107 15 293 3.2 3.2 0.00 0.00 0.00 63 1010.6
20260506033058 15 315 1.6 6.4 0.00 0.00 0.00 64 1010.6
20260506032052 15 300 3.2 6.4 0.00 0.00 0.00 65 1010.6
20260506031043 15 296 3.2 6.4 0.00 0.00 0.00 67 1010.6
20260506030033 15 277 3.2 6.4 0.00 0.00 0.00 67 1010.6
20260506025028 15 290 3.2 6.4 0.00 0.00 0.00 66 1010.6
20260506024018 16 270 1.6 3.2 0.00 0.00 0.00 66 1010.7